This is the latest recevied weather packets stored in our database for station/object KJ4YLO. If no packets are shown the sender has not sent any weather packets the latest 10 day(s).
| Time | Temp. | Humidity | Pressure | Rain* | Wind** | Luminosity | Snow |
|---|---|---|---|---|---|---|---|
| 1778020869 | 24.44° C | 37% | 1014.8 hPa | 0 mm | - | 54 W/m² | - |
| 1778020566 | 25° C | 36% | 1014.8 hPa | 0 mm | - | 48 W/m² | - |
| 1778020262 | 25° C | 36% | 1014.8 hPa | 0 mm | - | 71 W/m² | - |
| 1778019958 | 26.11° C | 36% | 1014.8 hPa | 0 mm | - | 145 W/m² | - |
| 1778019654 | 26.11° C | 31% | 1014.8 hPa | 0 mm | - | 191 W/m² | - |
| 1778019352 | 26.11° C | 34% | 1014.8 hPa | 0 mm | - | 232 W/m² | - |
| 1778019048 | 26.67° C | 31% | 1014.8 hPa | 0 mm | - | 235 W/m² | - |
| 1778018745 | 26.11° C | 30% | 1014.8 hPa | 0 mm | - | 233 W/m² | - |
| 1778018443 | 26.11° C | 33% | 1014.8 hPa | 0 mm | - | 264 W/m² | - |
| 1778018141 | 26.11° C | 32% | 1014.8 hPa | 0 mm | - | 278 W/m² | - |
| 1778017838 | 26.11° C | 35% | 1014.8 hPa | 0 mm | - | 301 W/m² | - |
| 1778017536 | 26.11° C | 35% | 1014.8 hPa | 0 mm | - | 268 W/m² | - |
| 1778017233 | 26.11° C | 33% | 1015.1 hPa | 0 mm | - | 320 W/m² | - |
| 1778016931 | 26.67° C | 33% | 1015.1 hPa | 0 mm | - | 345 W/m² | - |
| 1778016627 | 26.11° C | 34% | 1015.1 hPa | 0 mm | - | 402 W/m² | - |
| 1778016323 | 26.11° C | 34% | 1014.8 hPa | 0 mm | - | 380 W/m² | - |
| 1778016021 | 26.11° C | 32% | 1014.8 hPa | 0 mm | - | 386 W/m² | - |
| 1778015718 | 26.67° C | 32% | 1014.8 hPa | 0 mm | - | 375 W/m² | - |
| 1778015414 | 26.11° C | 33% | 1015.1 hPa | 0 mm | - | 359 W/m² | - |
| 1778015111 | 26.11° C | 31% | 1014.8 hPa | 0 mm | - | 432 W/m² | - |
| 1778014808 | 26.11° C | 30% | 1014.8 hPa | 0 mm | - | 400 W/m² | - |
| 1778014506 | 25.56° C | 35% | 1015.1 hPa | 0 mm | - | 384 W/m² | - |
| 1778014203 | 25° C | 35% | 1015.1 hPa | 0 mm | - | 400 W/m² | - |
| 1778013901 | 26.11° C | 35% | 1015.1 hPa | 0 mm | - | 229 W/m² | - |
| 1778013598 | 26.11° C | 32% | 1015.5 hPa | 0 mm | - | 538 W/m² | - |
* Rain latest hour (hover to see other rain measurements)
** Current wind speed in m/s (hover to see current wind gust speed)